Location: São Paulo
(23.5507°S, 46.6334°W)
Time: 11:01:29
(UTC-03:00)

Transit 4A - Pass Details

Date: 16 February 2026
Orbit: 864 x 977 km, 66.8° (Epoch: 11 March)

Event Time Altitude Azimuth Distance (km) Brightness Sun altitude
Rises 01:59:09 0° 203° (SSW) 3,502 11.2 -46.8°
Enters shadow 01:59:15 - 203° (SSW) 3,464 11.2 -46.8°
Reaches altitude 10° 02:01:40 10° 203° (SSW) 2,546 - -46.4°
Maximum altitude 02:07:33 88° 289° (WNW) 875 - -45.6°
Drops below altitude 10° 02:13:19 10° 21° (NNE) 2,494 - -44.8°
Sets 02:15:46 0° 21° (NNE) 3,427 - -44.4°
